TimePDT,TemperatureF,Dew PointF,Humidity,Sea Level PressureIn,VisibilityMPH,Wind Direction,Wind SpeedMPH,Gust SpeedMPH,PrecipitationIn,Events,Conditions,WindDirDegrees,DateUTC
12:52 AM,84.0,33.1,16,29.81,10.0,WSW,6.9,-,N/A,,Clear,240,2012-10-01 07:52:00
1:52 AM,78.1,34.0,20,29.82,10.0,Calm,Calm,-,N/A,,Clear,0,2012-10-01 08:52:00
2:52 AM,75.9,32.0,20,29.83,10.0,WNW,3.5,-,N/A,,Clear,290,2012-10-01 09:52:00
3:52 AM,78.1,33.1,19,29.83,10.0,WSW,4.6,-,N/A,,Clear,250,2012-10-01 10:52:00
4:52 AM,73.0,30.9,21,29.84,10.0,Calm,Calm,-,N/A,,Clear,0,2012-10-01 11:52:00
5:52 AM,72.0,30.9,22,29.86,10.0,North,5.8,-,N/A,,Clear,350,2012-10-01 12:52:00
6:52 AM,73.0,30.9,21,29.87,10.0,WNW,8.1,-,N/A,,Clear,300,2012-10-01 13:52:00
7:52 AM,82.0,30.0,15,29.89,10.0,NW,3.5,-,N/A,,Clear,310,2012-10-01 14:52:00
8:52 AM,86.0,32.0,14,29.91,10.0,WSW,5.8,-,N/A,,Clear,250,2012-10-01 15:52:00
9:52 AM,91.0,34.0,13,29.91,10.0,South,3.5,-,N/A,,Clear,170,2012-10-01 16:52:00
10:52 AM,93.9,39.0,15,29.89,10.0,Variable,3.5,-,N/A,,Clear,0,2012-10-01 17:52:00
11:52 AM,99.0,36.0,11,29.87,10.0,Calm,Calm,-,N/A,,Clear,0,2012-10-01 18:52:00
12:52 PM,104.0,30.0,8,29.85,10.0,North,6.9,-,N/A,,Clear,10,2012-10-01 19:52:00
1:52 PM,105.1,32.0,8,29.82,10.0,ENE,3.5,-,N/A,,Clear,60,2012-10-01 20:52:00
3:52 PM,104.0,32.0,8,29.78,10.0,ESE,6.9,-,N/A,,Clear,120,2012-10-01 22:52:00
4:52 PM,104.0,34.0,9,29.76,10.0,SE,5.8,-,N/A,,Clear,140,2012-10-01 23:52:00
5:52 PM,102.0,37.9,11,29.76,10.0,South,5.8,-,N/A,,Partly Cloudy,170,2012-10-02 00:52:00
6:52 PM,96.1,41.0,15,29.76,10.0,South,3.5,-,N/A,,Clear,180,2012-10-02 01:52:00
8:52 PM,87.1,35.1,16,29.77,10.0,NNW,5.8,-,N/A,,Clear,330,2012-10-02 03:52:00
9:52 PM,86.0,30.9,14,29.78,10.0,NNW,4.6,-,N/A,,Clear,340,2012-10-02 04:52:00
10:52 PM,87.1,30.0,13,29.78,10.0,Calm,Calm,-,N/A,,Clear,0,2012-10-02 05:52:00
11:52 PM,80.1,30.9,17,29.77,10.0,Calm,Calm,-,N/A,,Clear,0,2012-10-02 06:52:00